"Pseudo-MPEC" for P112fYq

Created 2020 Jul 1 15:07:07 UT using Find_Orb

Click here for an explanation of pseudo-MPECs

 
 Astrometry: 
     P112fYq  C2020 06 29A5FJOO)KZed'\KVjVKh?Z2!BjW[JeE51p;Siu?-VU23EBgq0`+CaF51
     P112fYq  C2020 06 29'grbkr(7amaZ.nI]31nCC[BfH9P.xMJ%;Bh`oJw0q^jZSn=@%e=FF51
     P112fYq  C2020 06 29`BHSs1RF5W;Wy#S7ul[UEOL?.8718w-;*Z6';nvrGxSKRDD%UC/[F51
     P112fYq  C2020 06 29qM-(@^j[iJa%+M(NOZ[f%Td_/anDXereH8$lsm4LjT^r)T]_37#rF51
     P112fYq KC2020 06 30.01887522 20 54.87 -04 24 32.8    ~711M 20.7 GUNEOCPI93
     P112fYq KC2020 06 30.03046922 20 48.12 -04 26 31.5    ~711M 20.1 GUNEOCPI93
     P112fYq  C2020 06 30?@Dw`b.Astrometry@T'gJonL9H02Q)@4B-%E%d#;redacted;`@F51
     P112fYq  C2020 06 302NRV0t[Yh-s6r_A!Y/wf4BlmaGpVajhdsu@)o!7ci'[NH6-13ty/F51
     P112fYq  C2020 06 30@lJg'O-o9j3c9iYPRIWgwYW_jjYiSS5$AR+J9=sEP6^so5%FlpIUF51
     P112fYq  C2020 06 30JmhnGu]%pi0@(d]UchkHaa7gY73)q]8B*Zj+VM0L=tmy_*UHrFJ4F51
     P112fYq  C2020 06 30aa!uSh$J%=l0w6;-dZ['Z9ei^jfL+('[o_+uR_ShTa,Zug[NgEj%F51
     P112fYq  C2020 06 305WQA_2!t(`%W1pTp1`Q,(clickfb^:O)_/s::UMoO/V.@Lt\vN,-F51
     P112fYq  C2020 06 3047mpWUTr_^here1HWforMbK(i@1xPs#mTyAaaVRTL0d[\I?mqP@3F51
     P112fYq pC2020 07 01!#ugUL`N)T\(uCC+Px2`bmBef56UI=18x6^dG8F*hDMst%_Zg,V,L01
     P112fYq pC2020 07 01rkB4F+1LDcbGd:'H(KuUyUo3B!i)t4K.4K:yx8b:T/Ar#Ht_Mpo%L01
     P112fYq pC2020 07 01dmGe\*9p0^[p]Y.ENToi2qcqexplanationx3fX8PK:p-D/WT1;6L01

Station data:
(F51) Pan-STARRS 1, Haleakala  (N20.707235 W156.255910)  US/Hawaii.
   Observers N. Primak, A. Schultz, S. Watters, J. Thiel, T. Goggia. Measurer
   PS1 Science Consortium. 1.8-m Ritchey-Chrétien + CCD.
(I93) St Pardon de Conques  (N44.558710 W0.203000)  France.  Observer F.
   Losse. 0.40-m f/3.7 reflector + CCD.
(L01) Višnjan Observatory, Tičan  (N45.290900 E13.749300)  Croatia.
   Observers K. Korlević, E. Pettarin. Measurer E. Pettarin. 1.0-m f/2.9
   reflector + CCD.

Orbital elements:  P112fYq
   Perihelion 2020 May 21.502675 +/- 0.0325 TT = 12:03:51 (JD 2458991.002675)
Epoch 2020 Jul  1.0 TT = JDT 2459031.5   Earth MOID: 0.0120   Ma: 0.0031
M  11.89072479 +/- 0.11             (J2000 ecliptic)          AutoNEOCP
n   0.29361753 +/- 0.00269          Peri.  123.55854 +/- 0.020
a   2.24189217 +/- 0.0137           Node   105.64654 +/- 0.010
e   0.5988995 +/- 0.00262           Incl.    3.92485 +/- 0.014
P   3.36                   H 24.8   G  0.15   U  8.8  
q 0.89922405 +/- 0.000379    Q 3.58456029 +/- 0.0276
From 16 observations 2020 June 29-July 1 (35.6 hr); mean residual 0".25
Residuals in arcseconds: 
200629 F51  .29-  .14-    200630 F51  .17+  .04+    200630 F51  .14-  .07+    
200629 F51  .11+  .06+    200630 F51  .09-  .07-    200701 L01  .58-  .35-    
200629 F51  .11-  .12-    200630 F51  .16-  .30-    200701 L01  .10+  .03-    
200629 F51  .04+  .03-    200630 F51  .16-  .12-    200701 L01  .62+  .51+    
200630 I93  .12-  .42+    200630 F51  .08-  .12-    
200630 I93  .46+  .11-    200630 F51  .30-  .20-    

Ephemerides (geocentric):
Date (UTC) HH   RA              Dec         delta   r     elong  mag " sig PA
---- -- -- --  -------------   -----------  ------ ------ -----  --- ---- ---
2020 07 01 15  22 07 45.459   -08 18 49.00  .06798 1.0607 128.9 20.9 .534 178
2020 07 01 16  22 07 27.640   -08 24 05.56  .06822 1.0610 129.1 20.9 .545 179
2020 07 01 17  22 07 09.933   -08 29 19.86  .06847 1.0613 129.2 20.9 .557 179
2020 07 01 18  22 06 52.335   -08 34 31.95  .06871 1.0616 129.3 20.9 .568   0
2020 07 01 19  22 06 34.845   -08 39 41.82  .06896 1.0619 129.5 20.9 .580   1
2020 07 01 20  22 06 17.463   -08 44 49.50  .06920 1.0621 129.6 21.0 .592   2
2020 07 01 21  22 06 00.187   -08 49 55.03  .06944 1.0624 129.8 21.0 .604   3
2020 07 01 22  22 05 43.017   -08 54 58.40  .06969 1.0627 129.9 21.0 .617   3
2020 07 01 23  22 05 25.951   -08 59 59.65  .06994 1.0630 130.0 21.0 .630   4
2020 07 02 00  22 05 08.989   -09 04 58.80  .07018 1.0633 130.2 21.0 .643   5
2020 07 02 01  22 04 52.129   -09 09 55.86  .07043 1.0636 130.3 21.0 .656   6
2020 07 02 02  22 04 35.371   -09 14 50.85  .07067 1.0639 130.4 21.0 .669   6
2020 07 02 03  22 04 18.713   -09 19 43.80  .07092 1.0642 130.6 21.0 .683   7
2020 07 02 04  22 04 02.155   -09 24 34.72  .07117 1.0645 130.7 21.0 .697   8
2020 07 02 05  22 03 45.695   -09 29 23.63  .07141 1.0648 130.8 21.0 .711   8
2020 07 02 06  22 03 29.333   -09 34 10.56  .07166 1.0650 131.0 21.0 .726   9
2020 07 02 07  22 03 13.067   -09 38 55.51  .07191 1.0653 131.1 21.0 .740  10
2020 07 02 08  22 02 56.898   -09 43 38.52  .07215 1.0656 131.2 21.0 .755  10
2020 07 02 09  22 02 40.823   -09 48 19.59  .07240 1.0659 131.4 21.0 .770  11
2020 07 02 10  22 02 24.842   -09 52 58.74  .07265 1.0662 131.5 21.0 .785  11
2020 07 02 11  22 02 08.955   -09 57 35.99  .07290 1.0665 131.6 21.0 .801  12
2020 07 02 12  22 01 53.159   -10 02 11.37  .07315 1.0668 131.7 21.0 .816  12
2020 07 02 13  22 01 37.456   -10 06 44.88  .07340 1.0671 131.9 21.0 .832  13
2020 07 02 14  22 01 21.842   -10 11 16.55  .07365 1.0674 132.0 21.0 .847  13
2020 07 02 15  22 01 06.319   -10 15 46.39  .07389 1.0677 132.1 21.0 .863  14
2020 07 02 16  22 00 50.884   -10 20 14.41  .07414 1.0680 132.3 21.0 .880  14
2020 07 02 17  22 00 35.537   -10 24 40.64  .07439 1.0682 132.4 21.0 .896  15
2020 07 02 18  22 00 20.278   -10 29 05.10  .07464 1.0685 132.5 21.0 .912  15
2020 07 02 19  22 00 05.105   -10 33 27.79  .07489 1.0688 132.6 21.1 .929  16
2020 07 02 20  21 59 50.018   -10 37 48.73  .07514 1.0691 132.8 21.1 .945  16
2020 07 02 21  21 59 35.015   -10 42 07.95  .07540 1.0694 132.9 21.1 .962  17
2020 07 02 22  21 59 20.097   -10 46 25.45  .07565 1.0697 133.0 21.1 .979  17
2020 07 02 23  21 59 05.262   -10 50 41.25  .07590 1.0700 133.1 21.1 1.00  17
2020 07 03 00  21 58 50.509   -10 54 55.37  .07615 1.0703 133.2 21.1 1.01  18
2020 07 03 01  21 58 35.839   -10 59 07.82  .07640 1.0706 133.4 21.1 1.03  18
2020 07 03 02  21 58 21.249   -11 03 18.61  .07665 1.0709 133.5 21.1 1.05  18
2020 07 03 03  21 58 06.740   -11 07 27.77  .07690 1.0712 133.6 21.1 1.06  19
2020 07 03 04  21 57 52.310   -11 11 35.31  .07716 1.0715 133.7 21.1 1.08  19
2020 07 03 05  21 57 37.960   -11 15 41.24  .07741 1.0718 133.8 21.1 1.10  19
2020 07 03 06  21 57 23.687   -11 19 45.57  .07766 1.0721 134.0 21.1 1.12  20
2020 07 03 07  21 57 09.492   -11 23 48.33  .07791 1.0724 134.1 21.1 1.14  20
2020 07 03 08  21 56 55.374   -11 27 49.52  .07817 1.0726 134.2 21.1 1.15  20
2020 07 03 09  21 56 41.332   -11 31 49.16  .07842 1.0729 134.3 21.1 1.17  21
2020 07 03 10  21 56 27.366   -11 35 47.26  .07867 1.0732 134.4 21.1 1.19  21
2020 07 03 11  21 56 13.474   -11 39 43.83  .07893 1.0735 134.5 21.1 1.21  21
2020 07 03 12  21 55 59.656   -11 43 38.90  .07918 1.0738 134.7 21.1 1.23  21
2020 07 03 13  21 55 45.912   -11 47 32.47  .07943 1.0741 134.8 21.1 1.24  22
2020 07 03 14  21 55 32.241   -11 51 24.55  .07969 1.0744 134.9 21.1 1.26  22